Delray Beach, FL

12:55 PM EDT on April 18, 2015 (GMT -0400)
Palm Beach International | | Change Station
CLOSE
Current Station
Airport
Location: West Palm Beach,
Elevation: 20 ft
Nearby Weather Stations

Elev 20 ft 26.68 °N, 80.10 °W | Updated 1 hour ago

Partly Cloudy
Partly Cloudy
88 °F
Feels Like 94 °F
N
12
Wind Variable Wind from SSW

Today
High -- | Low -- °F
--% Chance of Precip.
Yesterday
High -- | Low -- °F
Precip. -- in
6:54 AM 7:45 PM
Waning Crescent, 0% visible
Pressure 30.01 in
Visibility 10.0 miles
Clouds Scattered Clouds 3000 ft
Heat Index 94 °F
Dew Point 71 °F
Humidity 57%
Rainfall 0.00 in
Snow Depth Not available.
UV 10 out of 12
Pollen 5.30 out of 12
Air Quality Not available.
Flu Activity Local Activity
METAR KPBI 181553Z 20010KT 160V230 10SM SCT030 31/22 A3000 RMK AO2 SLP160 T03110217 $

More Conditions Fewer Conditions

Pressure 30.01 in
Visibility 10.0 miles
Clouds Scattered Clouds 3000 ft
Heat Index 94 °F
Dew Point 71 °F
Humidity 57%
Rainfall 0.00 in
Snow Depth Not available.
UV 10 out of 12
Pollen 5.30 out of 12
Air Quality Not available.
Flu Activity Local Activity
METAR KPBI 181553Z 20010KT 160V230 10SM SCT030 31/22 A3000 RMK AO2 SLP160 T03110217 $

More Conditions Fewer Conditions

10-Day Weather Forecast

Almanac

Astronomy

Apr. 18, 2015 Rise Set
Actual Time
Civil Twilight
Nautical Twilight
Astronomical Twilight
Moon
Length of Visible Light
Length of Day
Tomorrow will be .
, % of the Moon is Illuminated

Today's Extremes

State Highs State Lows

Community

WunderPhotos

Upload Photos

1,814,457 photos uploaded!

WunderBlogs® & News

Nearby

Air Quality

  Air Quality AQ Index Pollutant
Not available.

Snow Depth

Station Depth Elevation

Earthquake Activity

City Distance Mag. Time & Date
Minimum magnitude displayed is 2.5.

Coastal Water Temperatures

Place Temperature

Stations

Nearby Weather Stations

Station Location Temp. Windchill Dew Point Humidity Wind Precip. Elev Updated Type